METAR Formatted Surface Weather Observation
Issued by NWS Austin/San Antonio, TX

Home | Current Version | Previous Version | Text Only | Print | Product List | Glossary On
Versions: 1 2 3 4 5 6 7 8 9 10 11 12 13 14 15 16 17 18 19 20 21 22 23 24 25 26 27 28 29 30 31 32 33 34 35 36 37 38 39 40 41 42 43 44 45 46 47 48 49 50
883
SAUS44 KEWX 270654
MTRATT
METAR KATT 270651Z AUTO 14004KT 9SM BKN010 OVC016 19/18 A2991 RMK
AO2 RAB02E12 CIG 007V013 SLP122 P0000 T01940178



USA.gov is the U.S. government's official web portal to all federal, state and local government web resources and services.